Regional Weather Roundup
Issued by NWS

Home | Current Version | Previous Version | Graphics & Text | Print | Product List | Glossary On
Versions: 1 2 3 4 5 6 7 8 9 10 11 12 13 14 15 16 17 18 19 20 21 22 23 24 25 26 27 28 29 30 31 32 33 34 35 36 37 38 39 40 41 42 43 44 45 46 47 48 49 50
000
ASUS43 KFSD 041410
RWRSD

WEATHER ROUNDUP FOR SOUTH DAKOTA
NATIONAL WEATHER SERVICE SIOUX FALLS SD
900 AM CDT MON MAY 04 2015

NOTE: "FAIR" INDICATES FEW OR NO CLOUDS BELOW 12,000 FEET WITH NO
SIGNIFICANT WEATHER AND/OR OBSTRUCTIONS TO VISIBILITY.


SDZ001>005-009-010-012>017-041500-
NORTHWEST AND NORTH CENTRAL SOUTH DAKOTA

CITY           SKY/WX    TMP DP  RH WIND       PRES   REMARKS
BUFFALO          N/A     49  34  56 S17       30.13R
FAITH            N/A     51  25  36 S12       30.23R
MOBRIDGE       CLOUDY    50  35  56 NW3       30.20R
$$

SDZ012>016-024>037-041>051-057-063-072>074-041500-
SOUTHWEST AND SOUTH CENTRAL SOUTH DAKOTA

CITY           SKY/WX    TMP DP  RH WIND       PRES   REMARKS
RAPID CTY ARPT LGT RAIN  44  41  89 E5        30.22R FOG
PIERRE         CLOUDY    51  28  41 CALM      30.20R
CUSTER         CLOUDY    38  33  82 E6        30.19R
PHILIP         CLOUDY    52  31  44 CALM      30.21R
PINE RIDGE     CLOUDY    48  37  65 N3        30.18R
SPEARFISH      LGT RAIN  43  39  87 NE5       30.20R
WINNER         FAIR      52  27  38 E5        30.19R
$$

SDZ004>011-016>023-039-040-041500-
NORTHEAST SOUTH DAKOTA

CITY           SKY/WX    TMP DP  RH WIND       PRES   REMARKS
ABERDEEN       MOSUNNY   53  31  42 CALM      30.20R
WATERTOWN      MOSUNNY   53  35  50 CALM      30.18R
BROOKINGS      SUNNY     57  30  35 E12       30.17S
SISSETON         N/A     55  30  38 N3        30.19R
$$

SDZ017-020-022-023-036>040-048>070-041500-
SOUTHEAST SOUTH DAKOTA

CITY           SKY/WX    TMP DP  RH WIND       PRES   REMARKS
SIOUX FALLS    PTSUNNY   56  32  40 NE12      30.14S
HURON          MOSUNNY   51  32  48 NW5       30.19R
CHAMBERLAIN    PTSUNNY   55  28  35 NE8       30.19R
MITCHELL       MOSUNNY   58  36  43 NE8       30.18R
YANKTON        PTSUNNY   59  28  31 NE12      30.14R
$$

ABBREVIATIONS USED IN REMARKS
   TC - TEMPERATURE IN CELSIUS
  WCI - WIND CHILL INDEX
   HX - HEAT INDEX
  VSB - VISIBILITY



USA.gov is the U.S. government's official web portal to all federal, state and local government web resources and services.